When you browse on this site, cookies collect data to enhance your experience and personalize the content and advertising you see.
Visit our Privacy Policy to learn more. By continuing to use the site, you agree to this use of cookies and data.
  • In Sweden
  • List of Countries
  • For 7 days
  • Water Temperature
  • Satellite Maps
  • Weather Map
  • Weather Widgets
  • user-avatar
    Login

    Hourly Weather Onyshkivtsi

    Today, 20 June, Thursday

    Time Temperature Precipitation Wind Pressure Humidity
    00:00 +19°C° 0 mm 2 mps 736 mmHg 92%
    01:00 +19°C° 0 mm 2 mps 736 mmHg 93%
    02:00 +19°C° 0 mm 2 mps 736 mmHg 94%
    03:00 +18°C° 0.5 mm 2 mps 736 mmHg 94%
    04:00 +18°C° 0.5 mm 2 mps 736 mmHg 95%
    05:00 +18°C° 0.5 mm 2 mps 736 mmHg 95%
    06:00 +19°C° 1 mm 2 mps 736 mmHg 94%
    07:00 +20°C° 1 mm 2 mps 736 mmHg 92%
    08:00 +21°C° 1 mm 2 mps 736 mmHg 91%
    09:00 +23°C° 1.1 mm 2 mps 736 mmHg 86%
    10:00 +25°C° 1.1 mm 2 mps 736 mmHg 82%
    11:00 +26°C° 1.1 mm 2 mps 736 mmHg 77%
    12:00 +27°C° 0.9 mm 2 mps 736 mmHg 74%
    13:00 +27°C° 0.9 mm 2 mps 736 mmHg 70%
    14:00 +28°C° 0.9 mm 3 mps 736 mmHg 67%
    15:00 +28°C° 0.7 mm 2 mps 735 mmHg 69%
    16:00 +28°C° 0.7 mm 2 mps 735 mmHg 70%
    17:00 +28°C° 0.7 mm 2 mps 735 mmHg 72%
    18:00 +26°C° 0.4 mm 2 mps 735 mmHg 76%
    19:00 +25°C° 0.4 mm 2 mps 735 mmHg 81%
    20:00 +24°C° 0.4 mm 2 mps 735 mmHg 86%
    21:00 +23°C° 0.3 mm 2 mps 735 mmHg 87%
    22:00 +21°C° 0.3 mm 2 mps 735 mmHg 89%
    23:00 +20°C° 0.3 mm 2 mps 735 mmHg 91%

    Tomorrow, 21 June, Friday

    Time Temperature Precipitation Wind Pressure Humidity
    00:00 +20°C° 0 mm 2 mps 735 mmHg 91%
    01:00 +20°C° 0 mm 2 mps 736 mmHg 92%
    02:00 +20°C° 0 mm 2 mps 736 mmHg 93%
    03:00 +19°C° 0 mm 2 mps 736 mmHg 93%
    04:00 +19°C° 0 mm 2 mps 736 mmHg 93%
    05:00 +19°C° 0 mm 2 mps 736 mmHg 93%
    06:00 +21°C° 0 mm 2 mps 736 mmHg 89%
    07:00 +24°C° 0 mm 2 mps 736 mmHg 86%
    08:00 +25°C° 0 mm 2 mps 736 mmHg 82%
    09:00 +26°C° 0 mm 3 mps 736 mmHg 77%
    10:00 +27°C° 0 mm 3 mps 737 mmHg 73%
    11:00 +28°C° 0 mm 3 mps 737 mmHg 68%
    12:00 +29°C° 0.1 mm 3 mps 736 mmHg 67%
    13:00 +29°C° 0.1 mm 3 mps 736 mmHg 66%
    14:00 +30°C° 0.1 mm 3 mps 736 mmHg 65%
    15:00 +29°C° 0.2 mm 3 mps 736 mmHg 69%
    16:00 +29°C° 0.2 mm 3 mps 736 mmHg 73%
    17:00 +28°C° 0.2 mm 3 mps 735 mmHg 77%
    18:00 +27°C° 0.2 mm 3 mps 736 mmHg 81%
    19:00 +25°C° 0.2 mm 2 mps 736 mmHg 84%
    20:00 +24°C° 0.2 mm 2 mps 736 mmHg 88%
    21:00 +23°C° 0.3 mm 2 mps 736 mmHg 88%
    22:00 +23°C° 0.3 mm 2 mps 736 mmHg 89%
    23:00 +21°C° 0.3 mm 2 mps 736 mmHg 89%

    Day after tomorrow, 22 June, Saturday

    Time Temperature Precipitation Wind Pressure Humidity
    00:00 +20°C° 0 mm 2 mps 736 mmHg 89%
    01:00 +20°C° 0 mm 2 mps 736 mmHg 89%
    02:00 +20°C° 0 mm 2 mps 736 mmHg 90%
    03:00 +20°C° 0.1 mm 2 mps 736 mmHg 90%
    04:00 +19°C° 0.1 mm 2 mps 736 mmHg 91%
    05:00 +19°C° 0.1 mm 2 mps 736 mmHg 92%
    06:00 +21°C° 0.1 mm 2 mps 736 mmHg 88%
    07:00 +23°C° 0.1 mm 2 mps 737 mmHg 84%
    08:00 +25°C° 0.1 mm 2 mps 737 mmHg 81%
    09:00 +26°C° 1.5 mm 2 mps 737 mmHg 78%
    10:00 +27°C° 1.5 mm 2 mps 737 mmHg 75%
    11:00 +28°C° 1.5 mm 2 mps 737 mmHg 72%
    12:00 +28°C° 1.4 mm 2 mps 737 mmHg 71%
    13:00 +28°C° 1.4 mm 2 mps 737 mmHg 69%
    14:00 +28°C° 1.4 mm 1 mps 737 mmHg 67%
    15:00 +28°C° 0.3 mm 1 mps 736 mmHg 70%
    16:00 +28°C° 0.3 mm 1 mps 736 mmHg 72%
    17:00 +28°C° 0.3 mm 1 mps 736 mmHg 74%
    18:00 +27°C° 0.4 mm 2 mps 736 mmHg 78%
    19:00 +25°C° 0.4 mm 2 mps 736 mmHg 82%
    20:00 +24°C° 0.4 mm 2 mps 736 mmHg 85%
    21:00 +23°C° 0 mm 2 mps 736 mmHg 86%
    22:00 +23°C° 0 mm 2 mps 736 mmHg 87%
    23:00 +21°C° 0 mm 2 mps 736 mmHg 88%

    23 June, Sunday

    Time Temperature Precipitation Wind Pressure Humidity
    00:00 +21°C° 0 mm 2 mps 736 mmHg 89%
    01:00 +20°C° 0 mm 2 mps 736 mmHg 89%
    02:00 +20°C° 0 mm 2 mps 736 mmHg 90%
    03:00 +20°C° 0.1 mm 2 mps 736 mmHg 91%
    04:00 +20°C° 0.1 mm 2 mps 736 mmHg 92%
    05:00 +20°C° 0.1 mm 2 mps 736 mmHg 92%
    06:00 +21°C° 0.1 mm 2 mps 736 mmHg 89%
    07:00 +22°C° 0.1 mm 3 mps 737 mmHg 86%
    08:00 +24°C° 0.1 mm 3 mps 737 mmHg 83%
    09:00 +26°C° 0.8 mm 3 mps 737 mmHg 78%
    10:00 +27°C° 0.8 mm 3 mps 737 mmHg 73%
    11:00 +28°C° 0.8 mm 4 mps 737 mmHg 68%
    12:00 +28°C° 0.1 mm 4 mps 737 mmHg 66%
    13:00 +29°C° 0.1 mm 4 mps 737 mmHg 63%
    14:00 +29°C° 0.1 mm 4 mps 737 mmHg 61%
    15:00 +29°C° 0.4 mm 3 mps 737 mmHg 63%
    16:00 +28°C° 0.4 mm 3 mps 737 mmHg 66%
    17:00 +28°C° 0.4 mm 2 mps 737 mmHg 69%
    18:00 +27°C° 0.4 mm 2 mps 737 mmHg 73%
    19:00 +25°C° 0.4 mm 2 mps 737 mmHg 77%
    20:00 +24°C° 0.4 mm 1 mps 737 mmHg 81%
    21:00 +23°C° 0 mm 1 mps 738 mmHg 82%
    22:00 +21°C° 0 mm 2 mps 738 mmHg 84%
    23:00 +20°C° 0 mm 2 mps 738 mmHg 86%

    24 June, Monday

    Time Temperature Precipitation Wind Pressure Humidity
    00:00 +20°C° 0 mm 2 mps 738 mmHg 86%
    01:00 +20°C° 0 mm 1 mps 738 mmHg 87%
    02:00 +20°C° 0 mm 1 mps 738 mmHg 88%
    03:00 +20°C° 0 mm 1 mps 738 mmHg 89%
    04:00 +20°C° 0 mm 1 mps 738 mmHg 90%
    05:00 +19°C° 0 mm 2 mps 738 mmHg 91%
    06:00 +20°C° 0 mm 2 mps 739 mmHg 88%
    07:00 +23°C° 0 mm 2 mps 739 mmHg 84%
    08:00 +24°C° 0 mm 2 mps 739 mmHg 81%
    09:00 +26°C° 0.3 mm 2 mps 739 mmHg 77%
    10:00 +27°C° 0.3 mm 3 mps 739 mmHg 73%
    11:00 +28°C° 0.3 mm 3 mps 739 mmHg 68%
    12:00 +29°C° 0.3 mm 3 mps 739 mmHg 65%
    13:00 +29°C° 0.3 mm 2 mps 739 mmHg 62%
    14:00 +30°C° 0.3 mm 2 mps 739 mmHg 60%
    15:00 +29°C° 1.3 mm 2 mps 739 mmHg 66%
    16:00 +28°C° 1.3 mm 3 mps 739 mmHg 71%
    17:00 +27°C° 1.3 mm 3 mps 739 mmHg 77%
    18:00 +26°C° 0.2 mm 3 mps 739 mmHg 80%
    19:00 +25°C° 0.2 mm 2 mps 739 mmHg 83%
    20:00 +24°C° 0.2 mm 2 mps 740 mmHg 86%
    21:00 +23°C° 0.1 mm 2 mps 740 mmHg 88%
    22:00 +21°C° 0.1 mm 2 mps 740 mmHg 90%
    23:00 +20°C° 0.1 mm 2 mps 740 mmHg 92%

    25 June, Tuesday

    Time Temperature Precipitation Wind Pressure Humidity
    00:00 +20°C° 0.2 mm 2 mps 740 mmHg 93%
    01:00 +19°C° 0.2 mm 2 mps 740 mmHg 93%
    02:00 +19°C° 0.2 mm 2 mps 740 mmHg 93%
    03:00 +19°C° 0.1 mm 2 mps 740 mmHg 94%
    04:00 +19°C° 0.1 mm 2 mps 740 mmHg 95%
    05:00 +19°C° 0.1 mm 2 mps 740 mmHg 95%
    06:00 +20°C° 0 mm 2 mps 741 mmHg 93%
    07:00 +21°C° 0 mm 2 mps 741 mmHg 91%
    08:00 +22°C° 0 mm 3 mps 741 mmHg 88%
    09:00 +24°C° 0.4 mm 3 mps 741 mmHg 84%
    10:00 +26°C° 0.4 mm 3 mps 742 mmHg 79%
    11:00 +27°C° 0.4 mm 4 mps 742 mmHg 75%
    12:00 +27°C° 0.5 mm 4 mps 742 mmHg 74%
    13:00 +27°C° 0.5 mm 4 mps 742 mmHg 73%
    14:00 +27°C° 0.5 mm 4 mps 742 mmHg 71%
    15:00 +27°C° 1 mm 4 mps 741 mmHg 74%
    16:00 +27°C° 1 mm 4 mps 741 mmHg 76%
    17:00 +26°C° 1 mm 4 mps 741 mmHg 78%
    18:00 +25°C° 0.4 mm 3 mps 741 mmHg 82%
    19:00 +24°C° 0.4 mm 3 mps 741 mmHg 86%
    20:00 +22°C° 0.4 mm 3 mps 741 mmHg 90%
    21:00 +21°C° 0 mm 3 mps 742 mmHg 91%
    22:00 +20°C° 0 mm 3 mps 742 mmHg 93%
    23:00 +19°C° 0 mm 3 mps 742 mmHg 94%
    Show more